Regional Weather Roundup
Issued by NWS Northern Indiana

Home | Current Version | Previous Version | Graphics & Text | Print | Product List | Glossary On
Versions: 1 2 3 4 5 6 7 8 9 10 11 12 13 14 15 16 17 18 19 20 21 22 23 24 25 26 27 28 29 30 31 32 33 34 35 36 37 38 39 40 41 42 43 44 45 46 47 48 49 50
000
ASUS43 KIWX 302100
RWRIWX

KIWX WEATHER ROUNDUP
NATIONAL WEATHER SERVICE NORTHERN INDIANA
500 PM EDT SAT AUG 30 2014

NOTE: "FAIR" INDICATES FEW OR NO CLOUDS BELOW 12,000 FEET WITH NO
SIGNIFICANT WEATHER AND/OR OBSTRUCTIONS TO VISIBILITY.

* THESE STATIONS ARE NOT UNDER NWS QUALITY CONTROL. THEY ALSO MAY NOT
  REPORT WEATHER SUCH AS PRECIPITATION OR FOG.

INZ001>027-302200-
NORTHERN INDIANA

CITY           SKY/WX    TMP DP  RH WIND       PRES   REMARKS
GARY*          PTSUNNY   84  70  61 SW14G28   29.84F
VALPARAISO     CLOUDY    80  71  74 SW13      29.87F
KNOX*          PTSUNNY   82  69  66 SW14      29.86F
SOUTH BEND     PTSUNNY   80  70  71 SW15      29.88S
GOSHEN         PTSUNNY   84  69  60 S22       29.88F
MONTICELLO*    PTSUNNY   82  71  71 S16G22    29.90F
ANGOLA*        MOSUNNY   84  73  70 SW17      29.90F
FORT WAYNE     PTSUNNY   80  69  69 SW16      29.93F
PERU/GRISSOM   PTSUNNY   82  75  78 S15       29.92F

$$
INZ028>050-302200-
CENTRAL INDIANA

CITY           SKY/WX    TMP DP  RH WIND       PRES   REMARKS
LAFAYETTE      PTSUNNY   82  71  69 SW10      29.90F
KOKOMO*        PTSUNNY   81  70  69 SW17      29.93F
MUNCIE*        PTSUNNY   79  69  71 S10G22    29.96F
INDIANAPOLIS   CLOUDY    78  69  73 S16       29.96F

$$
MIZ043>046-050>051-056>058-064>065-071>073-077>080-302200-
SOUTHWEST LOWER MICHIGAN

CITY           SKY/WX    TMP DP  RH WIND       PRES   REMARKS
BATTLE CREEK   PTSUNNY   83  68  60 SW20G30   29.86F
BENTON HARBOR  PTSUNNY   83  68  60 SW17G26   29.84S
COLDWATER*     PTSUNNY   84  67  57 SW15G23   29.88F
HILLSDALE*     MOSUNNY   85  67  55 SW13G18   29.91F
HOLLAND        MOSUNNY   82  70  66 SW23G36   29.83F
GRAND RAPIDS   PTSUNNY   81  74  79 SW18G25   29.82F
KALAMAZOO      PTSUNNY   83  69  62 SW15      29.86S
STURGIS*       MOSUNNY   82  70  65 SW20G25   29.88F
THREE RIVERS*  FAIR      78  71  78 SW9G20    29.87F

$$
OHZ001>008-015>018-024>025-302200-
NORTHWEST OHIO

CITY           SKY/WX    TMP DP  RH WIND       PRES   REMARKS
DEFIANCE       PTSUNNY   83  68  60 SW14G23   29.92F
FINDLAY        CLOUDY    81  68  64 SW18G24   29.95F
TOLEDO EXPRESS MOSUNNY   83  68  60 SW18      29.91F
TOLEDO METCALF MOSUNNY   85  67  54 S24G32    29.92F
LIMA           CLOUDY    80  69  69 S17G23    29.97F

$$
&&



USA.gov is the U.S. government's official web portal to all federal, state and local government web resources and services.